This is the latest recevied weather packets stored in our database for station/object HB9HFD-13. If no packets are shown the sender has not sent any weather packets the latest 10 day(s).
| Time | Temp. | Humidity | Pressure | Rain* | Wind** | Luminosity | Snow |
|---|---|---|---|---|---|---|---|
| 1787998956 | 23.33° C | 51% | 1016.4 hPa | 0 mm | - | - | - |
| 1787998656 | 23.33° C | 48% | 1016.5 hPa | 0 mm | - | - | - |
| 1787998355 | 22.78° C | 49% | 1016.6 hPa | 0 mm | - | - | - |
| 1787998055 | 22.78° C | 49% | 1016.7 hPa | 0 mm | - | - | - |
| 1787997755 | 22.78° C | 49% | 1016.6 hPa | 0 mm | - | - | - |
| 1787997455 | 22.78° C | 50% | 1016.7 hPa | 0 mm | - | - | - |
| 1787997154 | 23.33° C | 49% | 1016.8 hPa | 0 mm | - | - | - |
| 1787996854 | 23.33° C | 53% | 1016.8 hPa | 0 mm | - | - | - |
| 1787996554 | 23.33° C | 56% | 1016.8 hPa | 0 mm | - | - | - |
| 1787996253 | 23.33° C | 57% | 1016.8 hPa | 0 mm | - | - | - |
| 1787995953 | 22.78° C | 59% | 1016.9 hPa | 0 mm | - | - | - |
| 1787995653 | 21.67° C | 60% | 1017 hPa | 0 mm | - | - | - |
| 1787995353 | 21.67° C | 56% | 1017 hPa | 0 mm | - | - | - |
| 1787995052 | 21.67° C | 59% | 1017.1 hPa | 0 mm | - | - | - |
| 1787994752 | 21.67° C | 63% | 1017.1 hPa | 0 mm | - | - | - |
| 1787994452 | 21.67° C | 59% | 1017.2 hPa | 0 mm | - | - | - |
| 1787994152 | 21.67° C | 61% | 1017.1 hPa | 0 mm | - | - | - |
| 1787993851 | 21.11° C | 63% | 1017.2 hPa | 0 mm | - | - | - |
| 1787993551 | 21.11° C | 63% | 1017.1 hPa | 0 mm | - | - | - |
| 1787993251 | 21.11° C | 66% | 1017.2 hPa | 0 mm | - | - | - |
| 1787992950 | 21.11° C | 64% | 1017.1 hPa | 0 mm | - | - | - |
| 1787992650 | 21.11° C | 67% | 1017.1 hPa | 0 mm | - | - | - |
| 1787992350 | 20.56° C | 67% | 1017.1 hPa | 0 mm | - | - | - |
| 1787992050 | 20.56° C | 66% | 1017.1 hPa | 0 mm | - | - | - |
| 1787991749 | 20° C | 68% | 1017.1 hPa | 0 mm | - | - | - |
* Rain latest hour (hover to see other rain measurements)
** Current wind speed in m/s (hover to see current wind gust speed)